Houston, TX

12:34 PM CST on February 27, 2017 (GMT -0600)
Ellington

Weather History for KEFD - December, 2016

Change the Weather History Date:

Monday, December 5, 2016

  Actual Average Record
Temperature  
Mean Temperature 55 °F -  
Max Temperature 59 °F 65 °F 82 °F (1998)
Min Temperature 51 °F 47 °F 33 °F (2006)
Degree Days  
Heating Degree Days 10    
Growing Degree Days 5 (Base 50)    
Moisture  
Dew Point 56 °F    
Average Humidity 99    
Maximum Humidity 100    
Minimum Humidity 94    
Precipitation  
Precipitation 0.00 in - - ()
Sea Level Pressure  
Sea Level Pressure 29.80 in    
Wind  
Wind Speed 8 mph (WNW)    
Max Wind Speed 17 mph    
Max Gust Speed -    
Visibility 6 miles    
Events Rain    
Averages and records for this station are not official NWS values.
T = Trace of Precipitation, MM = Missing Value Source: NWS Daily Summary

Daily Weather History Graph

Daily Weather History Graph

Search for Another Location

Airport or City:

Trip Planner

Search our weather history database for the weather conditions in past years. The results will help you decide how hot, cold, wet, or windy it might be!

Date:

Astronomy

Dec. 05, 2016 Rise Set
Actual Time 7:01 AM CST 5:21 PM CST
Civil Twilight 6:35 AM CST 5:47 PM CST
Nautical Twilight 6:05 AM CST 6:17 PM CST
Astronomical Twilight 5:36 AM CST 6:45 PM CST
Moon 11:34 AM CST (12/5) 11:02 PM CST (12/5)
Length of Visible Light 11h 11m
Length of Day
10h 19m
Waxing Crescent, 33% of the Moon is Illuminated
Dec 5
Waxing Crescent
Dec 7
First Quarter
Dec 13
Full
Dec 20
Last Quarter
Dec 29
New

Hourly Weather History & Observations

Time (CST) Temp. Dew Point Humidity Pressure Visibility Wind Dir Wind Speed Gust Speed Precip Events Conditions
1:50 AM 53.6 °F 51.8 °F 94% 29.90 in 4.0 mi North 9.2 mph - N/A Rain Light Rain
2:50 AM 53.6 °F 51.8 °F 94% 29.87 in 7.0 mi East 17.3 mph - N/A Rain Light Rain
6:50 AM 51.8 °F 50.0 °F 94% 29.82 in 7.0 mi NE 9.2 mph - N/A Rain Light Rain
7:50 AM 51.8 °F 50.0 °F 94% 29.84 in 7.0 mi North 6.9 mph - N/A   Overcast
8:50 AM 51.8 °F 50.0 °F 94% 29.84 in 7.0 mi North 6.9 mph - N/A Rain Rain
9:50 AM 55.4 °F 55.4 °F 100% 29.82 in 7.0 mi NE 6.9 mph - N/A   Overcast
10:50 AM 57.2 °F 57.2 °F 100% 29.81 in 7.0 mi NE 3.5 mph - N/A   Overcast
11:50 AM 57.2 °F 57.2 °F 100% 29.78 in 7.0 mi NW 3.5 mph - N/A   Overcast
12:50 PM 57.2 °F 57.2 °F 100% 29.76 in 4.0 mi West 5.8 mph - N/A   Overcast
1:06 PM 57.2 °F 57.2 °F 100% 29.76 in 0.8 mi West 5.8 mph - N/A   Overcast
1:50 PM 57.2 °F 57.2 °F 100% 29.74 in 0.8 mi West 6.9 mph - N/A   Overcast
2:50 PM 59.0 °F 59.0 °F 100% 29.75 in 0.8 mi West 10.4 mph - N/A   Overcast
3:50 PM 59.0 °F 59.0 °F 100% 29.75 in 2.0 mi West 10.4 mph - N/A   Overcast
4:50 PM 59.0 °F 59.0 °F 100% 29.74 in 6.0 mi West 9.2 mph - N/A   Overcast
5:50 PM 59.0 °F 59.0 °F 100% 29.75 in 6.0 mi Calm Calm - N/A   Scattered Clouds
6:50 PM 59.0 °F 59.0 °F 100% 29.78 in 7.0 mi WSW 6.9 mph - N/A   Overcast
7:50 PM 59.0 °F 59.0 °F 100% 29.79 in 7.0 mi WSW 8.1 mph - N/A   Mostly Cloudy
8:50 PM 59.0 °F 59.0 °F 100% 29.80 in 7.0 mi WSW 8.1 mph - N/A   Overcast
9:50 PM 59.0 °F 59.0 °F 100% 29.80 in 10.0 mi WSW 6.9 mph - N/A   Overcast
10:50 PM 59.0 °F 59.0 °F 100% 29.82 in 10.0 mi WSW 6.9 mph - N/A   Mostly Cloudy
11:50 PM 59.0 °F 59.0 °F 100% 29.82 in 10.0 mi WSW 6.9 mph - N/A   Overcast